Total_Precipitation_Accumulation
2.01 2.02 2.01 1.95 1.90 1.89 1.93 1.88 1.75 1.65 1.54 1.47 1.38 1.39 1.40 1.35 1.38 1.46 1.45 1.50 1.62 1.65 1.61 1.63 1.65 1.76 1.89 1.92 2.02 2.14 2.38 2.66 2.78 2.49 2.18 1.99 2.08 2.16 2.21 2.17 2.10 2.04 1.94
1.78 1.82 1.89 1.76 1.66 1.64 1.66 1.64 1.51 1.48 1.45 1.40 1.34 1.32 1.30 1.29 1.29 1.28 1.24 1.28 1.41 1.43 1.43 1.48 1.38 1.46 1.66 1.77 1.89 1.96 2.11 2.31 2.49 2.44 2.20 2.12 2.07 2.12 2.24 2.23 2.00 1.81 1.73
1.39 1.51 1.63 1.52 1.42 1.44 1.43 1.42 1.41 1.36 1.34 1.25 1.21 1.17 1.13 1.18 1.22 1.22 1.18 1.19 1.19 1.22 1.28 1.33 1.34 1.48 1.58 1.71 1.83 1.87 2.00 2.05 2.27 2.28 2.11 2.10 2.10 2.10 2.25 2.15 1.92 1.91 1.55
1.26 1.28 1.35 1.38 1.36 1.32 1.30 1.30 1.27 1.22 1.18 1.10 1.04 1.03 1.06 1.04 1.03 1.07 1.09 1.11 1.14 1.15 1.20 1.23 1.29 1.41 1.54 1.74 1.79 1.89 2.03 2.14 2.24 2.30 2.22 2.19 2.20 2.24 2.35 2.34 2.14 1.95 1.68
1.30 1.32 1.30 1.29 1.24 1.24 1.25 1.22 1.13 1.11 1.06 1.03 0.99 0.99 0.99 0.97 0.89 0.93 1.05 1.09 1.20 1.25 1.26 1.23 1.18 1.23 1.39 1.54 1.60 1.84 2.10 2.25 2.26 2.32 2.28 2.25 2.23 2.34 2.24 2.14 2.12 1.99 1.74
1.34 1.36 1.32 1.30 1.25 1.24 1.26 1.25 1.20 1.18 1.15 1.07 1.07 1.02 0.95 0.82 0.85 0.89 0.94 1.09 1.19 1.22 1.30 1.28 1.11 1.07 1.11 1.18 1.27 1.41 1.73 2.01 2.16 2.25 2.22 2.17 2.11 2.17 2.17 2.09 2.13 2.15 1.95
1.31 1.28 1.34 1.34 1.27 1.21 1.19 1.30 1.28 1.30 1.22 1.14 1.10 1.05 0.98 0.88 0.82 0.75 0.76 0.92 1.12 1.22 1.28 1.31 1.11 0.96 1.08 1.15 1.16 1.16 1.30 1.55 1.85 2.11 2.16 1.99 2.06 2.15 2.25 2.22 2.14 2.15 2.05
1.25 1.18 1.20 1.24 1.26 1.22 1.23 1.28 1.31 1.37 1.34 1.21 1.08 1.06 1.06 0.85 0.78 0.72 0.73 0.85 1.04 1.12 1.12 1.16 1.22 1.21 1.10 1.12 1.19 1.28 1.43 1.54 1.62 1.67 1.88 1.95 1.95 1.97 1.99 2.03 2.10 2.13 1.99
1.15 1.14 1.09 1.06 1.08 1.10 1.10 1.20 1.35 1.40 1.35 1.16 1.05 1.07 1.03 0.86 0.79 0.75 0.75 0.87 1.00 1.03 0.97 0.94 0.99 1.03 0.98 1.04 1.22 1.47 1.65 1.82 1.64 1.61 1.69 1.86 1.86 1.72 1.63 1.80 2.09 2.23 2.05
1.03 0.98 1.00 1.05 1.04 1.04 1.08 1.18 1.21 1.28 1.28 1.14 1.03 1.02 0.96 0.87 0.77 0.68 0.70 0.78 0.92 0.96 1.00 0.95 0.97 0.97 0.95 1.06 1.26 1.61 1.82 1.90 1.71 1.60 1.71 1.86 1.81 1.73 1.71 1.83 2.09 2.15 2.04
0.89 0.87 0.91 0.93 0.95 0.94 1.06 1.12 1.12 1.10 1.18 1.18 1.11 1.03 0.94 0.79 0.67 0.63 0.62 0.65 0.76 0.89 0.95 1.00 1.02 1.02 0.97 1.07 1.29 1.56 1.78 1.82 1.74 1.71 1.76 1.82 1.87 1.90 1.81 1.80 1.90 1.95 1.98
0.82 0.81 0.80 0.81 0.74 0.76 0.98 1.06 1.07 1.14 1.12 1.09 1.13 1.09 0.94 0.79 0.60 0.49 0.48 0.53 0.64 0.89 1.00 1.01 1.03 1.04 1.01 1.13 1.26 1.56 1.84 1.98 1.84 1.70 1.64 1.63 1.62 1.66 1.65 1.57 1.57 1.59 1.64
0.79 0.83 0.80 0.75 0.77 0.75 0.80 0.87 0.95 1.06 1.01 0.93 0.94 0.94 0.83 0.71 0.57 0.43 0.37 0.40 0.52 0.67 0.86 1.00 0.99 0.94 1.07 1.33 1.51 1.69 1.91 2.07 1.95 1.71 1.59 1.49 1.41 1.40 1.37 1.41 1.41 1.40 1.34
0.81 0.86 0.85 0.82 0.81 0.77 0.73 0.67 0.68 0.74 0.79 0.85 0.85 0.82 0.77 0.70 0.52 0.40 0.38 0.39 0.46 0.55 0.70 0.90 1.04 1.10 1.25 1.54 1.78 1.91 1.99 1.97 1.80 1.61 1.50 1.43 1.36 1.33 1.34 1.32 1.36 1.36 1.39
0.87 0.83 0.81 0.76 0.72 0.72 0.66 0.58 0.55 0.58 0.64 0.68 0.69 0.71 0.69 0.59 0.45 0.41 0.39 0.39 0.45 0.54 0.66 0.87 1.06 1.17 1.38 1.60 1.74 1.76 1.76 1.72 1.66 1.53 1.42 1.36 1.33 1.32 1.31 1.30 1.33 1.30 1.34
0.81 0.79 0.72 0.69 0.65 0.59 0.56 0.53 0.47 0.43 0.46 0.46 0.46 0.47 0.48 0.48 0.46 0.41 0.39 0.44 0.50 0.58 0.68 0.95 1.15 1.24 1.42 1.56 1.66 1.62 1.55 1.51 1.47 1.42 1.38 1.31 1.27 1.26 1.29 1.26 1.23 1.23 1.27
0.69 0.72 0.67 0.58 0.56 0.56 0.55 0.61 0.57 0.44 0.38 0.37 0.35 0.37 0.39 0.40 0.39 0.39 0.39 0.46 0.50 0.56 0.71 0.98 1.22 1.34 1.44 1.49 1.52 1.51 1.47 1.41 1.33 1.30 1.28 1.25 1.22 1.21 1.21 1.18 1.14 1.14 1.15
0.60 0.61 0.60 0.53 0.53 0.53 0.47 0.45 0.49 0.55 0.53 0.47 0.37 0.35 0.36 0.37 0.39 0.41 0.42 0.47 0.57 0.64 0.81 1.00 1.20 1.28 1.35 1.40 1.40 1.38 1.37 1.32 1.27 1.27 1.31 1.27 1.19 1.13 1.07 1.06 1.07 1.05 1.02
0.57 0.57 0.55 0.51 0.51 0.49 0.46 0.38 0.36 0.40 0.48 0.50 0.45 0.40 0.39 0.41 0.46 0.52 0.56 0.59 0.68 0.74 0.83 0.94 1.04 1.12 1.20 1.26 1.26 1.23 1.22 1.19 1.14 1.15 1.18 1.19 1.14 1.06 0.99 0.94 0.93 0.86 0.85
0.59 0.59 0.56 0.52 0.50 0.48 0.45 0.41 0.37 0.36 0.41 0.47 0.48 0.44 0.42 0.52 0.62 0.65 0.65 0.63 0.67 0.75 0.81 0.87 0.89 0.91 0.97 1.04 1.02 0.98 1.01 1.00 0.98 1.00 1.01 1.04 1.07 1.03 0.95 0.89 0.86 0.85 0.87
0.57 0.55 0.52 0.52 0.56 0.54 0.48 0.47 0.43 0.41 0.43 0.49 0.45 0.41 0.50 0.57 0.69 0.69 0.67 0.66 0.69 0.71 0.70 0.73 0.77 0.78 0.76 0.77 0.81 0.82 0.86 0.92 0.96 0.96 0.95 0.95 0.93 0.90 0.84 0.81 0.82 0.80 0.77
0.65 0.62 0.55 0.49 0.52 0.54 0.51 0.51 0.49 0.44 0.45 0.49 0.46 0.42 0.52 0.57 0.65 0.66 0.66 0.68 0.70 0.73 0.71 0.68 0.65 0.68 0.70 0.70 0.73 0.78 0.83 0.84 0.87 0.90 0.88 0.85 0.85 0.81 0.77 0.76 0.77 0.77 0.75
0.68 0.66 0.62 0.60 0.56 0.51 0.47 0.46 0.49 0.49 0.47 0.46 0.43 0.44 0.48 0.57 0.66 0.72 0.73 0.73 0.72 0.70 0.65 0.63 0.66 0.67 0.65 0.63 0.63 0.68 0.71 0.71 0.77 0.84 0.86 0.80 0.75 0.73 0.69 0.68 0.70 0.74 0.73
0.65 0.61 0.57 0.59 0.60 0.55 0.51 0.50 0.51 0.52 0.47 0.47 0.46 0.44 0.48 0.53 0.59 0.68 0.75 0.77 0.77 0.75 0.69 0.68 0.68 0.67 0.64 0.61 0.61 0.62 0.60 0.60 0.61 0.65 0.67 0.66 0.62 0.61 0.60 0.60 0.60 0.62 0.65
0.61 0.65 0.61 0.60 0.57 0.52 0.54 0.54 0.53 0.55 0.55 0.51 0.48 0.47 0.47 0.48 0.54 0.60 0.66 0.73 0.77 0.79 0.80 0.81 0.80 0.73 0.64 0.58 0.57 0.57 0.65 0.65 0.58 0.55 0.58 0.57 0.51 0.52 0.55 0.56 0.55 0.55 0.58
0.49 0.58 0.64 0.62 0.60 0.56 0.54 0.53 0.51 0.49 0.51 0.53 0.48 0.44 0.42 0.44 0.48 0.49 0.52 0.59 0.67 0.76 0.80 0.85 0.86 0.77 0.65 0.58 0.57 0.59 0.57 0.49 0.44 0.46 0.55 0.55 0.49 0.47 0.49 0.52 0.51 0.50 0.52